Time,TemperatureF,DewpointF,PressureIn,WindDirection,WindDirectionDegrees,WindSpeedMPH,WindSpeedGustMPH,Humidity,HourlyPrecipIn,Conditions,Clouds,dailyrainin,SoftwareType,DateUTC
2014-01-11 00:12:00,45.5,45.2,29.60,SSE,157,8.3,-999.0,99,-99.99,,,0.00,Acu-Link.com,2014-01-11 05:12:00,
2014-01-11 00:27:00,45.7,45.4,29.57,SSE,157,6.3,-999.0,99,-99.99,,,0.00,Acu-Link.com,2014-01-11 05:27:00,
2014-01-11 00:42:00,45.5,45.2,29.58,SE,135,6.3,-999.0,99,-99.99,,,0.00,Acu-Link.com,2014-01-11 05:42:00,
2014-01-11 00:57:00,45.3,45.0,29.56,South,180,3.7,-999.0,99,-99.99,,,0.00,Acu-Link.com,2014-01-11 05:57:00,
2014-01-11 01:13:00,45.1,44.8,29.56,ESE,112,5.8,-999.0,99,-99.99,,,0.00,Acu-Link.com,2014-01-11 06:13:00,
2014-01-11 01:28:00,45.7,45.4,29.55,South,180,4.2,-999.0,99,-99.99,,,0.00,Acu-Link.com,2014-01-11 06:28:00,
2014-01-11 01:43:00,48.4,48.1,29.54,SSW,202,8.9,-999.0,99,-99.99,,,0.00,Acu-Link.com,2014-01-11 06:43:00,
2014-01-11 01:58:00,48.9,48.6,29.52,WSW,247,7.3,-999.0,99,-99.99,,,0.00,Acu-Link.com,2014-01-11 06:58:00,
2014-01-11 02:13:00,48.7,48.4,29.52,SW,225,9.4,-999.0,99,-99.99,,,0.00,Acu-Link.com,2014-01-11 07:13:00,
2014-01-11 02:29:00,48.7,48.4,29.54,South,180,7.8,-999.0,99,-99.99,,,0.00,Acu-Link.com,2014-01-11 07:29:00,
2014-01-11 02:44:00,48.7,48.4,29.52,SSW,202,6.3,-999.0,99,-99.99,,,0.01,Acu-Link.com,2014-01-11 07:44:00,
2014-01-11 02:59:00,48.7,48.4,29.50,SSW,202,6.8,-999.0,99,-99.99,,,0.02,Acu-Link.com,2014-01-11 07:59:00,
2014-01-11 03:14:00,48.6,48.3,29.49,SW,225,10.9,-999.0,99,-99.99,,,0.04,Acu-Link.com,2014-01-11 08:14:00,
2014-01-11 03:30:00,48.4,48.1,29.49,SW,225,9.4,-999.0,99,-99.99,,,0.10,Acu-Link.com,2014-01-11 08:30:00,
2014-01-11 03:45:00,48.7,48.4,29.47,SSW,202,6.3,-999.0,99,-99.99,,,0.11,Acu-Link.com,2014-01-11 08:45:00,
2014-01-11 04:00:00,48.7,48.4,29.44,SSW,202,5.8,-999.0,99,-99.99,,,0.13,Acu-Link.com,2014-01-11 09:00:00,
2014-01-11 04:15:00,48.6,48.3,29.43,SSW,202,7.8,-999.0,99,-99.99,,,0.13,Acu-Link.com,2014-01-11 09:15:00,
2014-01-11 04:30:00,48.9,48.6,29.44,SSE,157,10.4,-999.0,99,-99.99,,,0.14,Acu-Link.com,2014-01-11 09:30:00,
2014-01-11 04:46:00,48.7,48.4,29.44,South,180,11.4,-999.0,99,-99.99,,,0.15,Acu-Link.com,2014-01-11 09:46:00,
2014-01-11 05:01:00,48.7,48.4,29.44,South,180,6.8,-999.0,99,-99.99,,,0.15,Acu-Link.com,2014-01-11 10:01:00,
2014-01-11 05:16:00,48.7,48.4,29.43,SSW,202,5.8,-999.0,99,-99.99,,,0.16,Acu-Link.com,2014-01-11 10:16:00,
2014-01-11 05:31:00,48.6,48.3,29.42,SW,225,6.3,-999.0,99,-99.99,,,0.19,Acu-Link.com,2014-01-11 10:31:00,
2014-01-11 05:46:00,48.2,47.9,29.43,South,180,6.3,-999.0,99,-99.99,,,0.20,Acu-Link.com,2014-01-11 10:46:00,
2014-01-11 06:02:00,48.6,48.3,29.41,South,180,7.8,-999.0,99,-99.99,,,0.21,Acu-Link.com,2014-01-11 11:02:00,
2014-01-11 06:17:00,48.6,48.3,29.40,SSW,202,8.9,-999.0,99,-99.99,,,0.21,Acu-Link.com,2014-01-11 11:17:00,
2014-01-11 06:32:00,48.7,48.4,29.41,WSW,247,9.4,-999.0,99,-99.99,,,0.21,Acu-Link.com,2014-01-11 11:32:00,
2014-01-11 06:47:00,48.7,48.4,29.40,West,270,3.2,-999.0,99,-99.99,,,0.21,Acu-Link.com,2014-01-11 11:47:00,
2014-01-11 07:03:00,48.2,47.9,29.40,SSW,202,6.3,-999.0,99,-99.99,,,0.21,Acu-Link.com,2014-01-11 12:03:00,
2014-01-11 07:18:00,47.8,47.5,29.37,SE,135,3.7,-999.0,99,-99.99,,,0.21,Acu-Link.com,2014-01-11 12:18:00,
2014-01-11 07:33:00,47.7,47.4,29.32,NNW,337,8.3,-999.0,99,-99.99,,,0.21,Acu-Link.com,2014-01-11 12:33:00,
2014-01-11 07:48:00,47.7,47.4,29.35,SSE,157,8.9,-999.0,99,-99.99,,,0.21,Acu-Link.com,2014-01-11 12:48:00,
2014-01-11 08:04:00,47.1,46.8,29.32,SSW,202,4.7,-999.0,99,-99.99,,,0.21,Acu-Link.com,2014-01-11 13:04:00,
2014-01-11 08:19:00,46.9,46.6,29.32,South,180,4.2,-999.0,99,-99.99,,,0.21,Acu-Link.com,2014-01-11 13:19:00,
2014-01-11 08:34:00,47.1,46.8,29.33,SSW,202,5.3,-999.0,99,-99.99,,,0.21,Acu-Link.com,2014-01-11 13:34:00,
2014-01-11 08:49:00,47.3,47.0,29.32,SW,225,4.2,-999.0,99,-99.99,,,0.21,Acu-Link.com,2014-01-11 13:49:00,
2014-01-11 09:05:00,47.7,47.4,29.32,South,180,5.3,-999.0,99,-99.99,,,0.21,Acu-Link.com,2014-01-11 14:05:00,
2014-01-11 09:20:00,48.0,47.7,29.32,ESE,112,7.3,-999.0,99,-99.99,,,0.21,Acu-Link.com,2014-01-11 14:20:00,
2014-01-11 09:35:00,48.6,48.3,29.32,SSW,202,9.4,-999.0,99,-99.99,,,0.22,Acu-Link.com,2014-01-11 14:35:00,
2014-01-11 09:50:00,48.6,48.3,29.30,SSW,202,10.9,-999.0,99,-99.99,,,0.22,Acu-Link.com,2014-01-11 14:50:00,
2014-01-11 10:05:00,48.7,48.4,29.31,SW,225,5.8,-999.0,99,-99.99,,,0.22,Acu-Link.com,2014-01-11 15:05:00,
2014-01-11 10:21:00,48.6,48.3,29.28,West,270,4.7,-999.0,99,-99.99,,,0.22,Acu-Link.com,2014-01-11 15:21:00,
2014-01-11 10:36:00,48.4,48.1,29.29,SW,225,7.3,-999.0,99,-99.99,,,0.22,Acu-Link.com,2014-01-11 15:36:00,
2014-01-11 10:51:00,48.6,48.3,29.29,SSE,157,5.3,-999.0,99,-99.99,,,0.23,Acu-Link.com,2014-01-11 15:51:00,
2014-01-11 11:06:00,48.6,48.3,29.30,SSW,202,5.3,-999.0,99,-99.99,,,0.25,Acu-Link.com,2014-01-11 16:06:00,
2014-01-11 11:21:00,48.7,48.4,29.28,SW,225,5.3,-999.0,99,-99.99,,,0.27,Acu-Link.com,2014-01-11 16:21:00,
2014-01-11 11:37:00,47.7,47.4,29.28,West,270,8.9,-999.0,99,-99.99,,,0.32,Acu-Link.com,2014-01-11 16:37:00,
2014-01-11 11:52:00,47.3,47.0,29.27,WSW,247,10.4,-999.0,99,-99.99,,,0.33,Acu-Link.com,2014-01-11 16:52:00,
2014-01-11 12:07:00,47.5,47.2,29.25,SW,225,8.3,-999.0,99,-99.99,,,0.33,Acu-Link.com,2014-01-11 17:07:00,
2014-01-11 12:22:00,46.9,46.6,29.26,SW,225,13.5,-999.0,99,-99.99,,,0.33,Acu-Link.com,2014-01-11 17:22:00,
2014-01-11 12:38:00,46.0,45.7,29.27,West,270,8.9,-999.0,99,-99.99,,,0.33,Acu-Link.com,2014-01-11 17:38:00,
2014-01-11 12:53:00,45.1,44.8,29.26,SW,225,7.8,-999.0,99,-99.99,,,0.33,Acu-Link.com,2014-01-11 17:53:00,
2014-01-11 13:08:00,44.6,44.3,29.27,SW,225,11.4,-999.0,99,-99.99,,,0.33,Acu-Link.com,2014-01-11 18:08:00,
2014-01-11 13:23:00,44.6,44.3,29.27,SW,225,10.9,-999.0,99,-99.99,,,0.33,Acu-Link.com,2014-01-11 18:23:00,
2014-01-11 13:38:00,44.2,43.9,29.25,SW,225,8.9,-999.0,99,-99.99,,,0.33,Acu-Link.com,2014-01-11 18:38:00,
2014-01-11 13:54:00,44.4,44.1,29.27,WSW,247,10.4,-999.0,99,-99.99,,,0.33,Acu-Link.com,2014-01-11 18:54:00,
2014-01-11 14:09:00,43.2,42.9,29.28,SW,225,10.9,-999.0,99,-99.99,,,0.33,Acu-Link.com,2014-01-11 19:09:00,
2014-01-11 14:24:00,42.6,42.3,29.27,West,270,8.9,-999.0,99,-99.99,,,0.33,Acu-Link.com,2014-01-11 19:24:00,
2014-01-11 14:39:00,41.5,41.2,29.30,WSW,247,11.4,-999.0,99,-99.99,,,0.33,Acu-Link.com,2014-01-11 19:39:00,
2014-01-11 14:54:00,40.8,40.5,29.30,West,270,16.1,-999.0,99,-99.99,,,0.33,Acu-Link.com,2014-01-11 19:54:00,
2014-01-11 15:10:00,40.5,40.2,29.31,West,270,12.5,-999.0,99,-99.99,,,0.33,Acu-Link.com,2014-01-11 20:10:00,
2014-01-11 15:25:00,40.1,39.8,29.31,SW,225,7.3,-999.0,99,-99.99,,,0.33,Acu-Link.com,2014-01-11 20:25:00,
2014-01-11 15:40:00,39.6,39.3,29.33,SW,225,10.4,-999.0,99,-99.99,,,0.33,Acu-Link.com,2014-01-11 20:40:00,
2014-01-11 15:55:00,39.2,38.9,29.34,SW,225,11.4,-999.0,99,-99.99,,,0.33,Acu-Link.com,2014-01-11 20:55:00,
2014-01-11 16:11:00,39.0,38.7,29.35,West,270,17.6,-999.0,99,-99.99,,,0.33,Acu-Link.com,2014-01-11 21:11:00,
2014-01-11 16:26:00,38.1,37.8,29.36,WSW,247,7.8,-999.0,99,-99.99,,,0.33,Acu-Link.com,2014-01-11 21:26:00,
2014-01-11 16:41:00,37.6,37.3,29.37,SW,225,10.9,-999.0,99,-99.99,,,0.33,Acu-Link.com,2014-01-11 21:41:00,
2014-01-11 16:56:00,37.0,36.7,29.38,West,270,9.4,-999.0,99,-99.99,,,0.33,Acu-Link.com,2014-01-11 21:56:00,
2014-01-11 17:11:00,36.5,36.2,29.38,SW,225,11.9,-999.0,99,-99.99,,,0.33,Acu-Link.com,2014-01-11 22:11:00,
2014-01-11 17:27:00,35.8,35.5,29.39,West,270,10.4,-999.0,99,-99.99,,,0.33,Acu-Link.com,2014-01-11 22:27:00,
2014-01-11 17:42:00,35.2,34.9,29.40,WSW,247,7.8,-999.0,99,-99.99,,,0.33,Acu-Link.com,2014-01-11 22:42:00,
2014-01-11 17:57:00,34.9,34.6,29.43,SW,225,7.3,-999.0,99,-99.99,,,0.33,Acu-Link.com,2014-01-11 22:57:00,
2014-01-11 18:12:00,34.7,34.4,29.42,WSW,247,11.4,-999.0,99,-99.99,,,0.33,Acu-Link.com,2014-01-11 23:12:00,
2014-01-11 18:27:00,34.5,34.2,29.43,SW,225,9.9,-999.0,99,-99.99,,,0.33,Acu-Link.com,2014-01-11 23:27:00,
2014-01-11 18:43:00,34.5,34.2,29.44,West,270,8.3,-999.0,99,-99.99,,,0.33,Acu-Link.com,2014-01-11 23:43:00,
2014-01-11 18:58:00,34.2,33.9,29.45,SW,225,11.4,-999.0,99,-99.99,,,0.33,Acu-Link.com,2014-01-11 23:58:00,
2014-01-11 19:13:00,34.0,33.7,29.47,West,270,13.0,-999.0,99,-99.99,,,0.33,Acu-Link.com,2014-01-12 00:13:00,
2014-01-11 19:28:00,33.8,33.5,29.46,West,270,8.9,-999.0,99,-99.99,,,0.33,Acu-Link.com,2014-01-12 00:28:00,
2014-01-11 19:44:00,33.4,33.1,29.46,WSW,247,7.8,-999.0,99,-99.99,,,0.33,Acu-Link.com,2014-01-12 00:44:00,
2014-01-11 19:59:00,33.4,33.1,29.48,SW,225,6.3,-999.0,99,-99.99,,,0.33,Acu-Link.com,2014-01-12 00:59:00,
2014-01-11 20:14:00,33.3,33.0,29.49,SSW,202,11.9,-999.0,99,-99.99,,,0.33,Acu-Link.com,2014-01-12 01:14:00,
2014-01-11 20:29:00,33.3,33.0,29.50,SW,225,9.4,-999.0,99,-99.99,,,0.33,Acu-Link.com,2014-01-12 01:29:00,
2014-01-11 20:44:00,33.3,33.0,29.51,WNW,292,9.4,-999.0,99,-99.99,,,0.33,Acu-Link.com,2014-01-12 01:44:00,
2014-01-11 21:00:00,33.1,32.8,29.52,WNW,292,7.3,-999.0,99,-99.99,,,0.33,Acu-Link.com,2014-01-12 02:00:00,
2014-01-11 21:15:00,33.4,33.1,29.52,SW,225,11.4,-999.0,99,-99.99,,,0.33,Acu-Link.com,2014-01-12 02:15:00,
2014-01-11 21:30:00,33.3,33.0,29.53,West,270,11.9,-999.0,99,-99.99,,,0.33,Acu-Link.com,2014-01-12 02:30:00,
2014-01-11 21:45:00,33.1,32.8,29.55,West,270,9.4,-999.0,99,-99.99,,,0.33,Acu-Link.com,2014-01-12 02:45:00,
2014-01-11 22:00:00,33.3,33.0,29.54,SW,225,8.9,-999.0,99,-99.99,,,0.33,Acu-Link.com,2014-01-12 03:00:00,
2014-01-11 22:16:00,33.4,33.1,29.57,WSW,247,6.3,-999.0,99,-99.99,,,0.33,Acu-Link.com,2014-01-12 03:16:00,
2014-01-11 22:31:00,33.4,33.1,29.56,WSW,247,9.4,-999.0,99,-99.99,,,0.33,Acu-Link.com,2014-01-12 03:31:00,
2014-01-11 22:46:00,33.3,33.0,29.57,SW,225,13.5,-999.0,99,-99.99,,,0.33,Acu-Link.com,2014-01-12 03:46:00,
2014-01-11 23:01:00,33.4,33.1,29.57,West,270,13.0,-999.0,99,-99.99,,,0.33,Acu-Link.com,2014-01-12 04:01:00,
2014-01-11 23:17:00,33.4,33.1,29.58,WSW,247,8.3,-999.0,99,-99.99,,,0.33,Acu-Link.com,2014-01-12 04:17:00,
2014-01-11 23:32:00,33.4,33.1,29.59,SSW,202,5.3,-999.0,99,-99.99,,,0.33,Acu-Link.com,2014-01-12 04:32:00,
2014-01-11 23:47:00,33.4,33.1,29.58,West,270,8.9,-999.0,99,-99.99,,,0.33,Acu-Link.com,2014-01-12 04:47:00,